Find Starlink 6278

NORAD ID: 56412 Int'l Des: 2023-061 Owner: SPXS Country: US Constellation: starlink operational
LEOCIRCULAR

实时位置

正在加载3D地球...

关于 Starlink 6278

正在加载描述...

即将过境

Passes for default location (London). Set your location on the main map for personalized predictions.

高度历史

Loading altitude history...

两行轨道根数

1 56412U 23061AQ 26127.25325081 .00001341 00000-0 58244-4 0 9990
2 56412 43.0020 216.0820 0001573 275.1160 84.9513 15.27576360165831
Epoch: May 7, 2026 • Age: 10 hours

当前状态

高度 482.5 km
速度 7.63 km/s
星下点 11.97°N, 87.9°W
发射日期 May 4, 2023
运行时间 3 years
类型 internet

技术详情

分类 Payload
质量 305.00 kg
干质量 290.00 kg
总质量 305.00 kg
长度 0.20 m
直径 2.80 m
跨度 9.00 m
形状 Box + pan
制造商 SPXS
平台类型 Starlink
阶段状态 In Orbit
所有者/国家 SPXS/US

Most Searched